StationID,Date,MaxTemp,MinTemp,Precipitation,Snowfall,SnowDepth
"CA001144413","1974-11-01",,,0.00,0.00,
"CA001144413","1974-11-02",,,0.00,0.00,
"CA001144413","1974-11-03",,,0.00,0.00,
"CA001144413","1974-11-04",,,0.00,0.00,
"CA001144413","1974-11-05",39.92,24.98,51.00,51.00,
"CA001144413","1974-11-06",39.92,24.98,76.00,76.00,
"CA001144413","1974-11-07",42.08,17.96,51.00,51.00,
"CA001144413","1974-11-08",28.04,19.94,203.00,203.00,
"CA001144413","1974-11-09",26.06,19.94,51.00,51.00,
"CA001144413","1974-11-10",19.94,19.94,178.00,178.00,
"CA001144413","1974-11-11",26.06,15.98,0.00,0.00,
"CA001144413","1974-11-12",26.06,6.08,305.00,305.00,
"CA001144413","1974-11-13",6.08,6.08,0.00,0.00,
"CA001144413","1974-11-14",19.94,1.94,0.00,0.00,
"CA001144413","1974-11-15",19.94,6.08,0.00,0.00,
"CA001144413","1974-11-16",19.94,12.02,0.00,0.00,
"CA001144413","1974-11-17",21.92,12.02,0.00,0.00,
"CA001144413","1974-11-18",26.06,12.02,127.00,127.00,
"CA001144413","1974-11-19",28.04,23.00,102.00,102.00,
"CA001144413","1974-11-20",33.98,23.00,203.00,203.00,
"CA001144413","1974-11-21",33.98,30.02,305.00,305.00,
"CA001144413","1974-11-22",24.08,10.04,279.00,279.00,
"CA001144413","1974-11-23",28.04,12.02,76.00,76.00,
"CA001144413","1974-11-24",32.00,10.04,76.00,76.00,
"CA001144413","1974-11-25",28.94,17.06,51.00,51.00,
"CA001144413","1974-11-26",19.94,12.92,51.00,51.00,
"CA001144413","1974-11-27",24.08,17.06,0.00,0.00,
"CA001144413","1974-11-28",21.92,12.02,0.00,0.00,
"CA001144413","1974-11-29",24.08,12.92,0.00,0.00,
"CA001144413","1974-11-30",24.08,14.00,0.00,0.00,
"CA001144413","1974-12-01",24.98,17.06,0.00,0.00,
"CA001144413","1974-12-02",28.04,17.06,0.00,0.00,
"CA001144413","1974-12-03",28.94,21.92,51.00,51.00,
"CA001144413","1974-12-04",30.02,26.06,51.00,51.00,
"CA001144413","1974-12-05",28.94,26.06,279.00,279.00,
"CA001144413","1974-12-06",24.08,21.92,25.00,25.00,
"CA001144413","1974-12-07",24.08,17.06,25.00,25.00,
"CA001144413","1974-12-08",23.00,12.02,0.00,0.00,
"CA001144413","1974-12-09",21.92,12.02,51.00,51.00,
"CA001144413","1974-12-10",24.98,21.02,25.00,25.00,
"CA001144413","1974-12-11",26.96,21.02,203.00,203.00,
"CA001144413","1974-12-12",19.94,10.04,127.00,127.00,
"CA001144413","1974-12-13",19.04,15.98,25.00,25.00,
"CA001144413","1974-12-14",19.04,15.98,127.00,127.00,
"CA001144413","1974-12-15",24.98,14.00,127.00,127.00,
"CA001144413","1974-12-16",30.02,17.96,51.00,51.00,
"CA001144413","1974-12-17",26.06,15.08,64.00,64.00,
"CA001144413","1974-12-18",21.02,12.02,38.00,38.00,
"CA001144413","1974-12-19",24.98,12.02,140.00,140.00,
"CA001144413","1974-12-20",32.00,21.02,229.00,229.00,
"CA001144413","1974-12-21",32.00,15.08,152.00,152.00,
"CA001144413","1974-12-22",15.98,12.02,229.00,229.00,
"CA001144413","1974-12-23",10.94,1.94,0.00,0.00,
"CA001144413","1974-12-24",15.08,6.08,0.00,0.00,
"CA001144413","1974-12-25",19.04,12.02,127.00,127.00,
"CA001144413","1974-12-26",21.92,-0.04,25.00,25.00,
"CA001144413","1974-12-27",24.08,14.00,356.00,356.00,
"CA001144413","1974-12-28",12.02,8.06,102.00,102.00,
"CA001144413","1974-12-29",15.98,10.04,0.00,0.00,
"CA001144413","1974-12-30",17.96,10.04,279.00,279.00,
"CA001144413","1974-12-31",15.98,8.06,0.00,0.00,
"CA001144413","1975-01-01",15.98,14.00,51.00,51.00,
"CA001144413","1975-01-02",17.06,10.04,127.00,127.00,
"CA001144413","1975-01-03",17.96,14.00,114.00,114.00,
"CA001144413","1975-01-04",19.04,12.02,127.00,127.00,
"CA001144413","1975-01-05",21.92,12.02,51.00,51.00,
"CA001144413","1975-01-06",17.96,15.98,114.00,114.00,
"CA001144413","1975-01-07",19.94,6.98,89.00,89.00,
"CA001144413","1975-01-08",21.92,12.02,254.00,254.00,
"CA001144413","1975-01-09",8.96,6.98,102.00,102.00,
"CA001144413","1975-01-10",8.06,-0.04,114.00,114.00,
"CA001144413","1975-01-11",5.00,-16.96,102.00,102.00,
"CA001144413","1975-01-12",17.96,-7.06,58.00,58.00,
"CA001144413","1975-01-13",21.92,10.94,25.00,25.00,
"CA001144413","1975-01-14",21.02,14.00,0.00,0.00,
"CA001144413","1975-01-15",15.98,6.08,0.00,0.00,
"CA001144413","1975-01-16",28.94,8.06,203.00,203.00,
"CA001144413","1975-01-17",28.94,15.98,305.00,305.00,
"CA001144413","1975-01-18",24.98,21.02,0.00,0.00,
"CA001144413","1975-01-19",30.92,19.94,18.00,18.00,
"CA001144413","1975-01-20",21.92,15.98,0.00,0.00,
"CA001144413","1975-01-21",17.96,6.98,81.00,81.00,
"CA001144413","1975-01-22",24.98,8.06,130.00,130.00,
"CA001144413","1975-01-23",26.06,19.94,51.00,51.00,
"CA001144413","1975-01-24",21.92,19.04,51.00,51.00,
"CA001144413","1975-01-25",19.94,19.94,127.00,127.00,
"CA001144413","1975-01-26",12.92,12.02,51.00,51.00,
"CA001144413","1975-01-27",10.04,-0.04,20.00,20.00,
"CA001144413","1975-01-28",8.96,3.92,81.00,81.00,
"CA001144413","1975-01-29",8.06,1.04,28.00,28.00,
"CA001144413","1975-01-30",8.06,-7.06,0.00,0.00,
"CA001144413","1975-01-31",8.96,-0.94,102.00,102.00,
"CA001144413","1975-02-01",17.06,3.92,368.00,368.00,
"CA001144413","1975-02-02",19.94,12.92,46.00,46.00,
"CA001144413","1975-02-03",19.04,10.94,30.00,30.00,
"CA001144413","1975-02-04",6.08,3.02,0.00,0.00,
"CA001144413","1975-02-05",10.94,-2.02,0.00,0.00,
"CA001144413","1975-02-06",15.98,-2.92,51.00,51.00,
"CA001144413","1975-02-07",17.06,3.02,102.00,102.00,
"CA001144413","1975-02-08",12.02,-9.94,25.00,25.00,
"CA001144413","1975-02-09",21.92,-7.06,165.00,165.00,
"CA001144413","1975-02-10",23.00,10.04,56.00,56.00,
"CA001144413","1975-02-11",24.08,15.98,244.00,244.00,
"CA001144413","1975-02-12",30.92,19.94,155.00,155.00,
"CA001144413","1975-02-13",28.94,26.06,193.00,193.00,
"CA001144413","1975-02-14",21.92,17.06,18.00,18.00,
"CA001144413","1975-02-15",21.92,12.02,152.00,152.00,
"CA001144413","1975-02-16",21.02,8.06,18.00,18.00,
"CA001144413","1975-02-17",15.98,10.04,79.00,79.00,
"CA001144413","1975-02-18",19.94,10.94,79.00,79.00,
"CA001144413","1975-02-19",24.08,17.06,267.00,267.00,
"CA001144413","1975-02-20",17.96,15.98,127.00,127.00,
"CA001144413","1975-02-21",15.98,-0.04,0.00,0.00,
"CA001144413","1975-02-22",24.08,8.96,0.00,0.00,
"CA001144413","1975-02-23",30.02,15.08,76.00,76.00,
"CA001144413","1975-02-24",24.08,19.04,0.00,0.00,
"CA001144413","1975-02-25",24.98,10.04,0.00,0.00,
"CA001144413","1975-02-26",23.00,6.08,41.00,41.00,
"CA001144413","1975-02-27",28.94,12.02,25.00,25.00,
"CA001144413","1975-02-28",32.00,23.00,107.00,107.00,
"CA001144413","1975-03-01",32.00,28.04,51.00,51.00,
"CA001144413","1975-03-02",33.08,30.02,30.00,30.00,
"CA001144413","1975-03-03",28.04,21.92,18.00,18.00,
"CA001144413","1975-03-04",28.94,8.06,8.00,8.00,
"CA001144413","1975-03-05",21.92,10.94,43.00,43.00,
"CA001144413","1975-03-06",24.08,6.08,0.00,0.00,
"CA001144413","1975-03-07",21.02,6.08,0.00,0.00,
"CA001144413","1975-03-08",24.08,14.00,51.00,51.00,
"CA001144413","1975-03-09",26.96,21.92,33.00,33.00,
"CA001144413","1975-03-10",24.98,21.92,15.00,15.00,
"CA001144413","1975-03-11",30.02,10.04,0.00,0.00,
"CA001144413","1975-03-12",23.00,10.04,84.00,84.00,
"CA001144413","1975-03-13",23.00,17.06,25.00,25.00,
"CA001144413","1975-03-14",21.92,17.06,58.00,58.00,
"CA001144413","1975-03-15",26.06,17.96,152.00,152.00,
"CA001144413","1975-03-16",26.96,21.92,122.00,122.00,
"CA001144413","1975-03-17",24.98,10.94,127.00,127.00,
"CA001144413","1975-03-18",28.04,21.02,86.00,86.00,
"CA001144413","1975-03-19",24.98,21.02,99.00,99.00,
"CA001144413","1975-03-20",23.00,17.96,117.00,117.00,
"CA001144413","1975-03-21",21.02,10.94,229.00,229.00,
"CA001144413","1975-03-22",21.92,17.96,229.00,229.00,
"CA001144413","1975-03-23",23.00,17.96,127.00,127.00,
"CA001144413","1975-03-24",26.06,15.08,0.00,0.00,
"CA001144413","1975-03-25",23.00,10.04,0.00,0.00,
"CA001144413","1975-03-26",19.04,-0.94,0.00,0.00,
"CA001144413","1975-03-27",19.94,-2.02,0.00,0.00,
"CA001144413","1975-03-28",24.08,5.00,0.00,0.00,
"CA001144413","1975-03-29",28.94,14.00,23.00,23.00,
"CA001144413","1975-03-30",24.08,21.92,0.00,0.00,
"CA001144413","1975-03-31",26.06,8.06,89.00,89.00,
"CA001144413","1975-04-01",24.98,-0.04,56.00,56.00,
"CA001144413","1975-04-02",24.98,12.02,89.00,89.00,
"CA001144413","1975-04-03",21.02,6.98,41.00,41.00,
"CA001144413","1975-04-04",23.00,10.04,107.00,107.00,
"CA001144413","1975-04-05",26.96,6.98,64.00,64.00,
"CA001144413","1975-04-06",30.02,15.98,5.00,5.00,
"CA001144413","1975-04-07",35.96,10.04,0.00,0.00,
"CA001144413","1975-04-08",35.96,21.02,94.00,94.00,
"CA001144413","1975-04-09",30.02,21.02,0.00,0.00,
"CA001144413","1975-04-10",37.04,19.04,0.00,0.00,
"CA001144413","1975-04-11",46.04,21.02,0.00,0.00,
"CA001144413","1975-04-12",48.02,26.96,0.00,0.00,
"CA001144413","1975-04-13",48.02,30.02,0.00,0.00,
"CA001144413","1975-04-14",42.98,24.98,0.00,0.00,
"CA001144413","1975-04-15",42.98,24.98,0.00,0.00,
"CA001144413","1975-04-16",35.96,26.96,64.00,64.00,
"CA001144413","1975-04-17",39.02,24.98,0.00,0.00,
"CA001144413","1975-04-18",39.92,24.98,51.00,51.00,
"CA001144413","1975-04-19",32.00,28.04,38.00,38.00,
"CA001144413","1975-04-20",30.02,14.00,0.00,0.00,
"CA001144413","1975-04-21",39.92,17.06,0.00,0.00,
"CA001144413","1975-04-22",39.92,23.00,8.00,8.00,
"CA001144413","1975-04-23",30.02,23.00,8.00,8.00,
"CA001144413","1975-04-24",32.00,24.08,20.00,20.00,
"CA001144413","1975-04-25",39.92,26.06,3.00,3.00,
"CA001144413","1975-04-26",39.92,26.06,0.00,0.00,
"CA001144413","1975-04-27",32.00,30.02,64.00,64.00,
"CA001144413","1975-04-28",37.94,23.00,0.00,0.00,
"CA001144413","1975-04-29",39.92,17.96,0.00,0.00,
"CA001144413","1975-04-30",,17.96,0.00,0.00,
"CA001144413","1975-05-01",44.06,24.98,0.00,0.00,
"CA001144413","1975-05-02",44.06,28.94,152.00,152.00,
"CA001144413","1975-05-03",32.00,30.02,51.00,51.00,
"CA001144413","1975-05-04",37.94,24.98,0.00,0.00,
"CA001144413","1975-05-05",39.92,28.94,0.00,0.00,
"CA001144413","1975-05-06",44.96,32.00,0.00,0.00,
"CA001144413","1975-05-07",48.02,33.98,0.00,0.00,
"CA001144413","1975-05-08",46.04,28.94,0.00,0.00,
"CA001144413","1975-05-09",,32.00,0.00,0.00,
"CA001144413","1975-05-10",51.98,,0.00,0.00,
"CA001144413","1975-05-11",,,0.00,0.00,
"CA001144413","1975-05-12",48.02,32.00,0.00,0.00,
"CA001144413","1975-05-13",53.96,32.00,0.00,0.00,
"CA001144413","1975-05-14",62.96,35.06,51.00,0.00,
"CA001144413","1975-05-15",46.94,39.92,305.00,0.00,
"CA001144413","1975-05-16",44.96,,0.00,0.00,
"CA001144413","1975-05-17",,,0.00,0.00,
"CA001144413","1975-05-18",,,0.00,0.00,
"CA001144413","1975-05-19",,,0.00,0.00,
"CA001144413","1975-05-20",48.92,32.00,0.00,0.00,
"CA001144413","1975-05-21",48.02,28.04,0.00,0.00,
"CA001144413","1975-05-22",50.00,30.02,0.00,0.00,
"CA001144413","1975-05-23",,,0.00,0.00,
"CA001144413","1975-05-24",,21.02,0.00,0.00,
"CA001144413","1975-05-25",41.00,,102.00,102.00,
"CA001144413","1975-05-26",46.04,,0.00,0.00,
"CA001144413","1975-05-27",48.02,30.92,36.00,0.00,
"CA001144413","1975-05-28",55.04,32.00,0.00,0.00,
"CA001144413","1975-05-29",53.96,39.02,0.00,0.00,
"CA001144413","1975-05-30",,37.04,0.00,0.00,
"CA001144413","1975-05-31",,,0.00,0.00,
"CA001144413","1975-06-01",62.06,35.96,,0.00,
"CA001144413","1975-06-02",53.06,32.00,,0.00,
"CA001144413","1975-06-03",46.94,30.92,53.00,0.00,
"CA001144413","1975-06-04",46.94,30.92,94.00,0.00,
"CA001144413","1975-06-05",53.96,35.96,0.00,0.00,
"CA001144413","1975-06-06",51.98,33.98,0.00,0.00,
"CA001144413","1975-06-07",41.00,30.92,15.00,0.00,
"CA001144413","1975-06-08",46.04,30.02,0.00,0.00,
"CA001144413","1975-06-09",53.96,28.94,0.00,0.00,
"CA001144413","1975-06-10",50.00,35.96,0.00,0.00,
"CA001144413","1975-06-11",59.00,37.94,0.00,0.00,
"CA001144413","1975-06-12",60.98,39.92,0.00,0.00,
"CA001144413","1975-06-13",50.00,39.92,0.00,0.00,
"CA001144413","1975-06-14",51.08,37.04,0.00,0.00,
"CA001144413","1975-06-15",46.94,37.04,99.00,0.00,
"CA001144413","1975-06-16",46.04,33.98,81.00,0.00,
"CA001144413","1975-06-17",53.06,33.98,0.00,0.00,
"CA001144413","1975-06-18",55.04,39.02,5.00,0.00,
"CA001144413","1975-06-19",55.04,42.98,23.00,0.00,
"CA001144413","1975-06-20",50.00,37.94,,0.00,
"CA001144413","1975-06-21",51.98,37.04,,0.00,
"CA001144413","1975-06-22",53.06,35.96,0.00,0.00,
"CA001144413","1975-06-23",55.94,30.92,109.00,0.00,
"CA001144413","1975-06-24",59.00,37.94,127.00,0.00,
"CA001144413","1975-06-25",42.08,39.92,175.00,25.00,
"CA001144413","1975-06-26",37.94,32.00,119.00,76.00,
"CA001144413","1975-06-27",35.96,30.92,25.00,25.00,
"CA001144413","1975-06-28",37.94,30.92,13.00,0.00,
"CA001144413","1975-06-29",46.94,30.02,0.00,0.00,
"CA001144413","1975-06-30",48.02,32.00,0.00,0.00,
"CA001144413","1975-07-01",66.92,41.00,0.00,0.00,
"CA001144413","1975-07-02",73.04,42.98,0.00,0.00,
"CA001144413","1975-07-03",78.08,48.92,0.00,0.00,
"CA001144413","1975-07-04",78.98,48.92,0.00,0.00,
"CA001144413","1975-07-05",80.96,53.96,0.00,0.00,
"CA001144413","1975-07-06",78.08,50.00,43.00,0.00,
"CA001144413","1975-07-07",64.94,51.08,0.00,0.00,
"CA001144413","1975-07-08",77.00,50.00,0.00,0.00,
"CA001144413","1975-07-09",80.96,51.98,0.00,0.00,
"CA001144413","1975-07-10",82.94,55.94,0.00,0.00,
"CA001144413","1975-07-11",82.04,60.08,0.00,0.00,
"CA001144413","1975-07-12",64.94,57.02,,0.00,
"CA001144413","1975-07-13",60.08,51.98,,0.00,
"CA001144413","1975-07-14",69.08,46.94,8.00,0.00,
"CA001144413","1975-07-15",51.98,48.92,147.00,0.00,
"CA001144413","1975-07-16",53.06,42.08,51.00,0.00,
"CA001144413","1975-07-17",51.08,39.02,180.00,0.00,
"CA001144413","1975-07-18",53.06,41.00,0.00,0.00,
"CA001144413","1975-07-19",57.02,42.08,0.00,0.00,
"CA001144413","1975-07-20",62.06,42.98,0.00,0.00,
"CA001144413","1975-07-21",66.02,44.06,0.00,0.00,
"CA001144413","1975-07-22",64.94,42.98,0.00,0.00,
"CA001144413","1975-07-23",68.00,44.96,0.00,0.00,
"CA001144413","1975-07-24",71.96,48.92,0.00,0.00,
"CA001144413","1975-07-25",69.08,48.02,0.00,0.00,
"CA001144413","1975-07-26",75.02,48.02,0.00,0.00,
"CA001144413","1975-07-27",77.00,46.94,0.00,0.00,
"CA001144413","1975-07-28",66.02,48.92,64.00,0.00,
"CA001144413","1975-07-29",53.96,44.96,147.00,0.00,
"CA001144413","1975-07-30",44.96,42.08,142.00,0.00,
"CA001144413","1975-07-31",53.06,41.00,46.00,0.00,
"CA001144413","1975-08-01",53.06,42.08,0.00,0.00,
"CA001144413","1975-08-02",48.02,44.06,0.00,0.00,
"CA001144413","1975-08-03",51.98,42.98,0.00,0.00,
"CA001144413","1975-08-04",66.92,42.98,0.00,0.00,
"CA001144413","1975-08-05",66.02,48.02,0.00,0.00,
"CA001144413","1975-08-06",62.06,41.00,0.00,0.00,
"CA001144413","1975-08-07",53.96,41.00,18.00,0.00,
"CA001144413","1975-08-08",53.96,41.00,0.00,0.00,
"CA001144413","1975-08-09",59.00,37.94,0.00,0.00,
"CA001144413","1975-08-10",60.08,44.06,0.00,0.00,
"CA001144413","1975-08-11",60.08,42.98,0.00,0.00,
"CA001144413","1975-08-12",64.94,39.02,0.00,0.00,
"CA001144413","1975-08-13",64.94,42.98,0.00,0.00,
"CA001144413","1975-08-14",68.00,44.96,0.00,0.00,
"CA001144413","1975-08-15",69.08,46.94,0.00,0.00,
"CA001144413","1975-08-16",57.02,46.04,,0.00,
"CA001144413","1975-08-17",51.98,44.06,,0.00,
"CA001144413","1975-08-18",48.92,42.08,,0.00,
"CA001144413","1975-08-19",51.98,41.00,127.00,0.00,
"CA001144413","1975-08-20",60.98,39.92,0.00,0.00,
"CA001144413","1975-08-21",57.92,41.00,0.00,0.00,
"CA001144413","1975-08-22",48.02,44.96,,0.00,
"CA001144413","1975-08-23",41.00,33.98,,0.00,
"CA001144413","1975-08-24",48.92,33.98,,0.00,
"CA001144413","1975-08-25",51.08,35.06,36.00,0.00,
"CA001144413","1975-08-26",53.96,39.92,0.00,0.00,
"CA001144413","1975-08-27",66.02,41.00,0.00,0.00,
"CA001144413","1975-08-28",42.98,42.08,76.00,0.00,
"CA001144413","1975-08-29",44.06,35.96,191.00,0.00,
"CA001144413","1975-08-30",48.92,30.92,,0.00,
"CA001144413","1975-08-31",46.94,37.04,,0.00,
"CA001144413","1975-09-01",48.02,37.04,,0.00,
"CA001144413","1975-09-02",44.06,37.04,0.00,0.00,
"CA001144413","1975-09-03",50.00,35.96,0.00,0.00,
"CA001144413","1975-09-04",53.96,32.00,0.00,0.00,
"CA001144413","1975-09-05",62.06,42.08,0.00,0.00,
"CA001144413","1975-09-06",64.04,42.08,0.00,0.00,
"CA001144413","1975-09-07",62.96,42.08,0.00,0.00,
"CA001144413","1975-09-08",60.08,42.08,0.00,0.00,
"CA001144413","1975-09-09",62.06,39.92,0.00,0.00,
"CA001144413","1975-09-10",64.04,35.96,0.00,0.00,
"CA001144413","1975-09-11",57.92,32.00,0.00,0.00,
"CA001144413","1975-09-12",66.02,39.02,0.00,0.00,
"CA001144413","1975-09-13",66.92,39.02,0.00,0.00,
"CA001144413","1975-09-14",66.92,41.00,0.00,0.00,
"CA001144413","1975-09-15",66.02,42.08,8.00,0.00,
"CA001144413","1975-09-16",51.08,46.94,198.00,0.00,
"CA001144413","1975-09-17",42.08,37.04,56.00,0.00,
"CA001144413","1975-09-18",46.94,28.04,51.00,0.00,
"CA001144413","1975-09-19",51.98,30.92,0.00,0.00,
"CA001144413","1975-09-20",57.02,33.98,0.00,0.00,
"CA001144413","1975-09-21",64.94,37.04,0.00,0.00,
"CA001144413","1975-09-22",64.94,42.08,0.00,0.00,
"CA001144413","1975-09-23",64.94,44.06,0.00,0.00,
"CA001144413","1975-09-24",57.92,37.94,0.00,0.00,
"CA001144413","1975-09-25",53.96,35.06,0.00,0.00,
"CA001144413","1975-09-26",53.96,33.98,0.00,0.00,
"CA001144413","1975-09-27",59.00,33.08,0.00,0.00,
"CA001144413","1975-09-28",51.98,37.94,0.00,0.00,
"CA001144413","1975-09-29",53.96,33.08,0.00,0.00,
"CA001144413","1975-09-30",57.92,35.06,0.00,0.00,
"CA001144413","1975-10-01",62.06,33.98,0.00,0.00,
"CA001144413","1975-10-02",64.94,37.94,5.00,0.00,
"CA001144413","1975-10-03",55.94,42.98,0.00,0.00,
"CA001144413","1975-10-04",39.92,33.98,0.00,0.00,
"CA001144413","1975-10-05",48.92,30.02,368.00,25.00,
"CA001144413","1975-10-06",33.98,30.92,71.00,71.00,
"CA001144413","1975-10-07",35.06,30.02,0.00,0.00,
"CA001144413","1975-10-08",33.98,26.96,0.00,0.00,
"CA001144413","1975-10-09",33.98,26.96,13.00,13.00,
"CA001144413","1975-10-10",,,,0.00,
"CA001144413","1975-10-11",37.94,30.92,,0.00,
"CA001144413","1975-10-12",42.98,28.94,,0.00,
"CA001144413","1975-10-13",42.98,30.02,,0.00,
"CA001144413","1975-10-14",35.06,28.94,51.00,51.00,
"CA001144413","1975-10-15",32.00,30.92,38.00,38.00,
"CA001144413","1975-10-16",42.98,26.96,259.00,0.00,
"CA001144413","1975-10-17",46.04,28.94,25.00,25.00,
"CA001144413","1975-10-18",35.96,30.02,0.00,0.00,
"CA001144413","1975-10-19",33.98,26.96,0.00,0.00,
"CA001144413","1975-10-20",37.04,,25.00,25.00,
"CA001144413","1975-10-21",30.92,26.96,89.00,89.00,
"CA001144413","1975-10-22",26.96,15.08,8.00,8.00,
"CA001144413","1975-10-23",39.92,8.96,0.00,0.00,
"CA001144413","1975-10-24",23.00,12.02,406.00,406.00,
"CA001144413","1975-10-25",28.04,19.94,152.00,152.00,
"CA001144413","1975-10-26",28.04,21.02,64.00,64.00,
"CA001144413","1975-10-27",28.04,19.94,152.00,152.00,
"CA001144413","1975-10-28",28.94,19.04,152.00,152.00,
"CA001144413","1975-10-29",33.98,19.04,241.00,241.00,
"CA001144413","1975-10-30",28.04,23.00,152.00,152.00,
"CA001144413","1975-10-31",26.96,19.94,0.00,0.00,
"CA001144413","1975-11-01",26.96,23.00,20.00,20.00,
"CA001144413","1975-11-02",39.02,24.98,140.00,140.00,
"CA001144413","1975-11-03",44.96,23.00,0.00,0.00,
"CA001144413","1975-11-04",48.02,33.98,0.00,0.00,
"CA001144413","1975-11-05",46.04,33.98,0.00,0.00,
"CA001144413","1975-11-06",26.96,19.04,109.00,109.00,
"CA001144413","1975-11-07",24.98,21.02,79.00,79.00,
"CA001144413","1975-11-08",24.98,12.02,231.00,231.00,
"CA001144413","1975-11-09",19.04,14.00,30.00,30.00,
"CA001144413","1975-11-10",21.02,10.04,102.00,102.00,
"CA001144413","1975-11-11",21.02,8.96,20.00,20.00,
"CA001144413","1975-11-12",26.96,12.02,0.00,0.00,
"CA001144413","1975-11-13",37.04,14.00,41.00,41.00,
"CA001144413","1975-11-14",33.98,24.98,231.00,231.00,
"CA001144413","1975-11-15",35.96,24.98,51.00,51.00,
"CA001144413","1975-11-16",21.02,14.00,71.00,71.00,
"CA001144413","1975-11-17",17.96,17.96,41.00,41.00,
"CA001144413","1975-11-18",14.00,5.00,0.00,0.00,
"CA001144413","1975-11-19",15.98,3.02,0.00,0.00,
"CA001144413","1975-11-20",23.00,10.04,0.00,0.00,
"CA001144413","1975-11-21",21.02,6.98,10.00,10.00,
"CA001144413","1975-11-22",23.00,15.98,81.00,81.00,
"CA001144413","1975-11-23",26.96,17.96,231.00,231.00,
"CA001144413","1975-11-24",28.04,14.00,30.00,30.00,
"CA001144413","1975-11-25",21.02,1.94,150.00,150.00,
"CA001144413","1975-11-26",19.94,3.02,20.00,20.00,
"CA001144413","1975-11-27",10.04,6.98,0.00,0.00,
"CA001144413","1975-11-28",-4.00,-7.96,0.00,0.00,
"CA001144413","1975-11-29",-0.04,-11.92,20.00,20.00,
"CA001144413","1975-11-30",19.04,-11.02,112.00,112.00,
"CA001144413","1975-12-01",30.92,15.98,140.00,140.00,
"CA001144413","1975-12-02",35.96,24.98,259.00,30.00,
"CA001144413","1975-12-03",35.96,33.08,20.00,10.00,
"CA001144413","1975-12-04",35.06,21.02,180.00,10.00,
"CA001144413","1975-12-05",19.94,6.08,0.00,0.00,
"CA001144413","1975-12-06",23.00,8.06,71.00,71.00,
"CA001144413","1975-12-07",30.02,19.04,119.00,119.00,
"CA001144413","1975-12-08",35.96,21.02,254.00,61.00,
"CA001144413","1975-12-09",35.96,32.00,0.00,0.00,
"CA001144413","1975-12-10",24.98,19.04,0.00,0.00,
"CA001144413","1975-12-11",14.00,5.00,10.00,10.00,
"CA001144413","1975-12-12",5.00,1.04,10.00,10.00,
"CA001144413","1975-12-13",12.02,1.04,0.00,0.00,
"CA001144413","1975-12-14",14.00,-0.04,279.00,279.00,
"CA001144413","1975-12-15",15.98,8.96,10.00,10.00,
"CA001144413","1975-12-16",12.92,3.02,20.00,20.00,
"CA001144413","1975-12-17",17.06,8.06,0.00,0.00,
"CA001144413","1975-12-18",15.98,8.06,0.00,0.00,
"CA001144413","1975-12-19",17.06,8.06,0.00,0.00,
"CA001144413","1975-12-20",21.02,12.92,0.00,0.00,
"CA001144413","1975-12-21",19.04,12.02,0.00,0.00,
"CA001144413","1975-12-22",23.00,12.92,41.00,41.00,
"CA001144413","1975-12-23",24.98,17.96,30.00,30.00,
"CA001144413","1975-12-24",26.96,19.94,71.00,71.00,
"CA001144413","1975-12-25",26.96,19.04,140.00,140.00,
"CA001144413","1975-12-26",32.00,24.08,180.00,180.00,
"CA001144413","1975-12-27",21.02,19.94,30.00,30.00,
"CA001144413","1975-12-28",28.04,14.00,102.00,102.00,
"CA001144413","1975-12-29",35.06,21.02,201.00,180.00,
"CA001144413","1975-12-30",19.94,17.96,218.00,218.00,
"CA001144413","1975-12-31",14.00,10.94,0.00,0.00,
"CA001144413","1976-01-01",12.92,1.94,0.00,0.00,
"CA001144413","1976-01-02",10.04,-0.04,76.00,76.00,
"CA001144413","1976-01-03",15.98,5.00,102.00,102.00,
"CA001144413","1976-01-04",24.98,6.08,102.00,102.00,
"CA001144413","1976-01-05",21.92,17.96,51.00,51.00,
"CA001144413","1976-01-06",17.96,15.08,127.00,127.00,
"CA001144413","1976-01-07",21.02,12.02,102.00,102.00,
"CA001144413","1976-01-08",21.92,14.00,76.00,76.00,
"CA001144413","1976-01-09",19.04,15.98,76.00,76.00,
"CA001144413","1976-01-10",23.00,15.08,305.00,305.00,
"CA001144413","1976-01-11",17.96,15.98,102.00,102.00,
"CA001144413","1976-01-12",17.96,15.08,76.00,76.00,
"CA001144413","1976-01-13",17.96,5.00,102.00,102.00,
"CA001144413","1976-01-14",26.06,6.98,254.00,254.00,
"CA001144413","1976-01-15",33.98,21.02,74.00,25.00,
"CA001144413","1976-01-16",37.04,28.94,38.00,0.00,
"CA001144413","1976-01-17",35.96,30.02,25.00,25.00,
"CA001144413","1976-01-18",23.00,19.94,0.00,0.00,
"CA001144413","1976-01-19",24.08,6.08,0.00,0.00,
"CA001144413","1976-01-20",28.04,15.08,0.00,0.00,
"CA001144413","1976-01-21",26.06,19.04,0.00,0.00,
"CA001144413","1976-01-22",24.98,19.94,51.00,51.00,
"CA001144413","1976-01-23",17.06,14.00,0.00,0.00,
"CA001144413","1976-01-24",15.08,6.08,102.00,102.00,
"CA001144413","1976-01-25",17.96,6.98,25.00,25.00,
"CA001144413","1976-01-26",26.06,10.94,0.00,0.00,
"CA001144413","1976-01-27",28.94,17.96,0.00,0.00,
"CA001144413","1976-01-28",32.00,19.94,0.00,0.00,
"CA001144413","1976-01-29",32.00,19.04,0.00,0.00,
"CA001144413","1976-01-30",33.08,19.94,0.00,0.00,
"CA001144413","1976-01-31",33.08,21.92,0.00,0.00,
"CA001144413","1976-02-01",35.06,21.92,0.00,0.00,
"CA001144413","1976-02-02",32.00,24.98,0.00,0.00,
"CA001144413","1976-02-03",19.94,15.08,0.00,0.00,
"CA001144413","1976-02-04",6.08,-2.02,0.00,0.00,
"CA001144413","1976-02-05",15.98,-7.06,0.00,0.00,